When you browse on this site, cookies collect data to enhance your experience and personalize the content and advertising you see.
Visit our Privacy Policy to learn more. By continuing to use the site, you agree to this use of cookies and data.
  • en Suisse
  • Liste des pays
  • À 7 jours
  • Température de l'eau
  • Carte satellitaire
  • Carte météo
  • Widgets météo
  • user-avatar
    Se connecter

    Météo par heure à Batna

    Ce jour, 23 Mars, Samedi

    Heure Température Précipitation Vent Pression Humidité
    00:00 +6°C° 0 mm 2 m/s 670 mmHg 88%
    01:00 +6°C° 0.2 mm 2 m/s 670 mmHg 88%
    02:00 +5°C° 0.2 mm 2 m/s 670 mmHg 88%
    03:00 +5°C° 0.2 mm 2 m/s 670 mmHg 88%
    04:00 +5°C° 0.3 mm 2 m/s 670 mmHg 89%
    05:00 +5°C° 0.3 mm 2 m/s 670 mmHg 90%
    06:00 +5°C° 0 mm 2 m/s 671 mmHg 91%
    07:00 +6°C° 0.2 mm 2 m/s 671 mmHg 90%
    08:00 +6°C° 0.2 mm 2 m/s 671 mmHg 88%
    09:00 +7°C° 0.2 mm 2 m/s 671 mmHg 87%
    10:00 +8°C° 0.1 mm 3 m/s 672 mmHg 81%
    11:00 +9°C° 0.1 mm 3 m/s 672 mmHg 75%
    12:00 +10°C° 0.1 mm 4 m/s 672 mmHg 69%
    13:00 +10°C° 0.1 mm 4 m/s 672 mmHg 68%
    14:00 +10°C° 0.1 mm 4 m/s 672 mmHg 68%
    15:00 +10°C° 0.1 mm 4 m/s 672 mmHg 67%
    16:00 +10°C° 0 mm 4 m/s 672 mmHg 71%
    17:00 +9°C° 0 mm 3 m/s 672 mmHg 75%
    18:00 +9°C° 0 mm 3 m/s 672 mmHg 79%
    19:00 +8°C° 0 mm 3 m/s 673 mmHg 83%
    20:00 +8°C° 0 mm 2 m/s 673 mmHg 86%
    21:00 +8°C° 0 mm 2 m/s 673 mmHg 90%
    22:00 +7°C° 0 mm 2 m/s 673 mmHg 91%
    23:00 +7°C° 0 mm 1 m/s 673 mmHg 93%

    Demain, 24 Mars, Dimanche

    Heure Température Précipitation Vent Pression Humidité
    00:00 +7°C° 0 mm 1 m/s 673 mmHg 94%
    01:00 +6°C° 0 mm 1 m/s 673 mmHg 93%
    02:00 +5°C° 0 mm 0 m/s 673 mmHg 93%
    03:00 +5°C° 0 mm 0 m/s 672 mmHg 93%
    04:00 +5°C° 0 mm 0 m/s 673 mmHg 92%
    05:00 +5°C° 0 mm 0 m/s 673 mmHg 91%
    06:00 +5°C° 0 mm 0 m/s 673 mmHg 91%
    07:00 +7°C° 0 mm 0 m/s 673 mmHg 81%
    08:00 +9°C° 0 mm 0 m/s 674 mmHg 72%
    09:00 +11°C° 0 mm 0 m/s 675 mmHg 62%
    10:00 +13°C° 0 mm 1 m/s 675 mmHg 58%
    11:00 +13°C° 0 mm 1 m/s 675 mmHg 54%
    12:00 +14°C° 0 mm 1 m/s 675 mmHg 50%
    13:00 +14°C° 0.1 mm 1 m/s 675 mmHg 51%
    14:00 +14°C° 0.1 mm 2 m/s 674 mmHg 52%
    15:00 +14°C° 0.1 mm 2 m/s 674 mmHg 53%
    16:00 +13°C° 0 mm 2 m/s 673 mmHg 56%
    17:00 +13°C° 0 mm 2 m/s 673 mmHg 58%
    18:00 +12°C° 0 mm 2 m/s 673 mmHg 60%
    19:00 +10°C° 0 mm 2 m/s 673 mmHg 62%
    20:00 +10°C° 0 mm 2 m/s 673 mmHg 63%
    21:00 +9°C° 0 mm 3 m/s 673 mmHg 64%
    22:00 +9°C° 0 mm 3 m/s 673 mmHg 64%
    23:00 +8°C° 0 mm 2 m/s 673 mmHg 64%

    Après-demain, 25 Mars, Lundi

    Heure Température Précipitation Vent Pression Humidité
    00:00 +8°C° 0 mm 2 m/s 673 mmHg 64%
    01:00 +8°C° 0 mm 2 m/s 673 mmHg 66%
    02:00 +7°C° 0 mm 2 m/s 672 mmHg 68%
    03:00 +7°C° 0 mm 2 m/s 672 mmHg 70%
    04:00 +7°C° 0 mm 2 m/s 672 mmHg 70%
    05:00 +7°C° 0 mm 2 m/s 672 mmHg 70%
    06:00 +7°C° 0 mm 2 m/s 671 mmHg 70%
    07:00 +8°C° 0 mm 2 m/s 672 mmHg 60%
    08:00 +10°C° 0 mm 2 m/s 673 mmHg 51%
    09:00 +12°C° 0 mm 3 m/s 674 mmHg 41%
    10:00 +13°C° 0 mm 3 m/s 673 mmHg 39%
    11:00 +14°C° 0 mm 3 m/s 673 mmHg 37%
    12:00 +16°C° 0 mm 3 m/s 673 mmHg 35%
    13:00 +16°C° 0 mm 3 m/s 673 mmHg 35%
    14:00 +16°C° 0 mm 3 m/s 672 mmHg 35%
    15:00 +15°C° 0 mm 4 m/s 671 mmHg 36%
    16:00 +14°C° 0 mm 3 m/s 671 mmHg 40%
    17:00 +13°C° 0 mm 3 m/s 671 mmHg 44%
    18:00 +12°C° 0 mm 3 m/s 671 mmHg 48%
    19:00 +13°C° 0 mm 2 m/s 671 mmHg 51%
    20:00 +12°C° 0 mm 2 m/s 671 mmHg 54%
    21:00 +11°C° 0 mm 1 m/s 671 mmHg 57%
    22:00 +10°C° 0 mm 2 m/s 671 mmHg 57%
    23:00 +10°C° 0 mm 2 m/s 670 mmHg 57%

    26 Mars, Mardi

    Heure Température Précipitation Vent Pression Humidité
    00:00 +10°C° 0 mm 2 m/s 670 mmHg 57%
    01:00 +10°C° 0 mm 2 m/s 670 mmHg 59%
    02:00 +10°C° 0 mm 2 m/s 670 mmHg 60%
    03:00 +10°C° 0 mm 2 m/s 670 mmHg 61%
    04:00 +10°C° 0 mm 2 m/s 669 mmHg 64%
    05:00 +9°C° 0 mm 2 m/s 669 mmHg 66%
    06:00 +9°C° 0 mm 2 m/s 669 mmHg 68%
    07:00 +12°C° 0 mm 2 m/s 670 mmHg 61%
    08:00 +13°C° 0 mm 2 m/s 670 mmHg 55%
    09:00 +15°C° 0 mm 2 m/s 671 mmHg 48%
    10:00 +15°C° 0.2 mm 2 m/s 671 mmHg 49%
    11:00 +15°C° 0.2 mm 2 m/s 671 mmHg 50%
    12:00 +14°C° 0.2 mm 3 m/s 671 mmHg 51%
    13:00 +14°C° 0.2 mm 3 m/s 671 mmHg 52%
    14:00 +14°C° 0.2 mm 3 m/s 671 mmHg 53%
    15:00 +14°C° 0.2 mm 4 m/s 670 mmHg 54%
    16:00 +13°C° 0.2 mm 3 m/s 670 mmHg 60%
    17:00 +14°C° 0.2 mm 2 m/s 670 mmHg 66%
    18:00 +13°C° 0.2 mm 2 m/s 670 mmHg 72%
    19:00 +12°C° 0.3 mm 2 m/s 670 mmHg 77%
    20:00 +12°C° 0.3 mm 2 m/s 670 mmHg 82%
    21:00 +10°C° 0.3 mm 2 m/s 670 mmHg 88%
    22:00 +10°C° 0 mm 2 m/s 670 mmHg 89%
    23:00 +9°C° 0 mm 2 m/s 670 mmHg 89%

    27 Mars, Mercredi

    Heure Température Précipitation Vent Pression Humidité
    00:00 +9°C° 0 mm 2 m/s 670 mmHg 90%
    01:00 +8°C° 0 mm 2 m/s 670 mmHg 90%
    02:00 +8°C° 0 mm 2 m/s 670 mmHg 89%
    03:00 +7°C° 0 mm 3 m/s 670 mmHg 89%
    04:00 +7°C° 0 mm 3 m/s 670 mmHg 89%
    05:00 +7°C° 0 mm 3 m/s 670 mmHg 88%
    06:00 +5°C° 0 mm 3 m/s 670 mmHg 88%
    07:00 +7°C° 0 mm 3 m/s 670 mmHg 85%
    08:00 +7°C° 0 mm 3 m/s 671 mmHg 82%
    09:00 +7°C° 0 mm 3 m/s 671 mmHg 78%
    10:00 +8°C° 0.1 mm 3 m/s 671 mmHg 76%
    11:00 +8°C° 0.1 mm 3 m/s 671 mmHg 74%
    12:00 +8°C° 0.1 mm 3 m/s 671 mmHg 71%
    13:00 +8°C° 0 mm 4 m/s 670 mmHg 69%
    14:00 +8°C° 0 mm 4 m/s 670 mmHg 68%
    15:00 +8°C° 0 mm 4 m/s 670 mmHg 66%
    16:00 +8°C° 0.1 mm 4 m/s 670 mmHg 68%
    17:00 +7°C° 0.1 mm 4 m/s 671 mmHg 70%
    18:00 +8°C° 0.1 mm 3 m/s 671 mmHg 72%
    19:00 +7°C° 0.2 mm 4 m/s 671 mmHg 75%
    20:00 +6°C° 0.2 mm 4 m/s 672 mmHg 78%
    21:00 +6°C° 0.2 mm 4 m/s 672 mmHg 81%
    22:00 +6°C° 0.1 mm 4 m/s 672 mmHg 83%
    23:00 +5°C° 0.1 mm 4 m/s 672 mmHg 85%

    28 Mars, Jeudi

    Heure Température Précipitation Vent Pression Humidité
    00:00 +5°C° 0.1 mm 4 m/s 671 mmHg 87%
    01:00 +4°C° 0 mm 3 m/s 671 mmHg 87%
    02:00 +4°C° 0 mm 3 m/s 671 mmHg 87%
    03:00 +4°C° 0 mm 2 m/s 671 mmHg 87%
    04:00 +4°C° 0 mm 2 m/s 671 mmHg 85%
    05:00 +4°C° 0 mm 2 m/s 671 mmHg 83%
    06:00 +4°C° 0 mm 2 m/s 671 mmHg 81%
    07:00 +5°C° 0 mm 2 m/s 672 mmHg 72%
    08:00 +7°C° 0 mm 2 m/s 673 mmHg 63%
    09:00 +8°C° 0 mm 2 m/s 673 mmHg 55%
    10:00 +9°C° 0 mm 2 m/s 673 mmHg 51%
    11:00 +10°C° 0 mm 2 m/s 674 mmHg 47%
    12:00 +12°C° 0 mm 2 m/s 674 mmHg 44%
    13:00 +13°C° 0 mm 2 m/s 673 mmHg 42%
    14:00 +12°C° 0 mm 3 m/s 673 mmHg 39%
    15:00 +13°C° 0 mm 3 m/s 673 mmHg 37%
    16:00 +12°C° 0 mm 3 m/s 673 mmHg 41%
    17:00 +11°C° 0 mm 3 m/s 673 mmHg 46%
    18:00 +10°C° 0 mm 3 m/s 673 mmHg 50%
    19:00 +9°C° 0 mm 3 m/s 673 mmHg 55%
    20:00 +8°C° 0 mm 2 m/s 673 mmHg 61%
    21:00 +7°C° 0 mm 2 m/s 673 mmHg 67%
    22:00 +8°C° 0 mm 1 m/s 673 mmHg 69%
    23:00 +8°C° 0 mm 1 m/s 673 mmHg 71%
    Voir plus